QPF
0.00 0.00 0.00 0.00 0.00 0.00 0.00 0.00 0.00 0.00 0.00 0.00 0.00 0.00 0.00 0.00 0.00 0.00 0.00 0.00 0.00 0.00 0.00 0.00 0.00 0.00 0.00 0.00 0.00 0.00 0.00 0.00 0.00 0.00 0.00 0.00 0.00 0.00 0.00 0.00 0.00 0.00 0.00 0.00 0.00 0.00 0.00 0.00 0.00 0.00 0.00 0.00 0.00 0.00 0.00 0.00 0.00 0.00 0.00 0.00 0.00 0.00 0.00 0.00 0.00 0.00 0.00 0.00 0.00 0.00 0.00 0.00 0.00 0.00
0.00 0.00 0.00 0.00 0.00 0.00 0.00 0.00 0.00 0.00 0.00 0.00 0.00 0.00 0.00 0.00 0.00 0.00 0.00 0.00 0.00 0.00 0.00 0.00 0.00 0.00 0.00 0.00 0.00 0.00 0.00 0.00 0.00 0.00 0.00 0.00 0.00 0.00 0.00 0.00 0.00 0.00 0.00 0.00 0.00 0.00 0.00 0.00 0.00 0.00 0.00 0.00 0.00 0.00 0.00 0.00 0.00 0.00 0.00 0.00 0.00 0.00 0.00 0.00 0.00 0.00 0.00 0.00 0.00 0.00 0.00 0.00 0.00 0.00
0.00 0.00 0.00 0.00 0.00 0.00 0.00 0.00 0.00 0.00 0.00 0.00 0.00 0.00 0.00 0.00 0.00 0.00 0.00 0.00 0.00 0.00 0.00 0.00 0.00 0.00 0.00 0.00 0.00 0.00 0.00 0.00 0.00 0.00 0.00 0.00 0.00 0.00 0.00 0.00 0.00 0.00 0.00 0.00 0.00 0.00 0.00 0.00 0.00 0.00 0.00 0.00 0.00 0.00 0.00 0.00 0.00 0.00 0.00 0.00 0.00 0.00 0.00 0.00 0.00 0.00 0.00 0.00 0.00 0.00 0.00 0.00 0.00 0.00
0.00 0.00 0.00 0.00 0.00 0.00 0.00 0.00 0.00 0.00 0.00 0.00 0.00 0.00 0.00 0.00 0.00 0.00 0.00 0.00 0.00 0.00 0.00 0.00 0.00 0.00 0.00 0.00 0.00 0.00 0.00 0.00 0.00 0.00 0.00 0.00 0.00 0.00 0.00 0.00 0.00 0.00 0.00 0.00 0.00 0.00 0.00 0.00 0.00 0.00 0.00 0.00 0.00 0.00 0.00 0.00 0.00 0.00 0.00 0.00 0.00 0.00 0.00 0.00 0.00 0.00 0.00 0.00 0.00 0.00 0.00 0.00 0.00 0.00
0.00 0.00 0.00 0.00 0.00 0.00 0.00 0.00 0.00 0.00 0.00 0.00 0.00 0.00 0.00 0.00 0.00 0.00 0.00 0.00 0.00 0.00 0.00 0.00 0.00 0.00 0.00 0.00 0.00 0.00 0.00 0.00 0.00 0.00 0.00 0.00 0.00 0.00 0.00 0.00 0.00 0.00 0.00 0.00 0.00 0.00 0.00 0.00 0.00 0.00 0.00 0.00 0.00 0.00 0.00 0.00 0.00 0.00 0.00 0.00 0.00 0.00 0.00 0.00 0.00 0.00 0.00 0.00 0.00 0.00 0.00 0.00 0.00 0.00
0.00 0.00 0.00 0.00 0.00 0.00 0.00 0.00 0.00 0.00 0.00 0.00 0.00 0.00 0.00 0.00 0.00 0.00 0.00 0.00 0.00 0.00 0.00 0.00 0.00 0.00 0.00 0.00 0.00 0.00 0.00 0.00 0.00 0.00 0.00 0.00 0.00 0.00 0.00 0.00 0.00 0.00 0.00 0.00 0.00 0.00 0.00 0.00 0.00 0.00 0.00 0.00 0.00 0.00 0.00 0.00 0.00 0.00 0.00 0.00 0.00 0.00 0.00 0.00 0.00 0.00 0.00 0.00 0.00 0.00 0.00 0.00 0.00 0.00
0.00 0.00 0.00 0.00 0.00 0.00 0.00 0.00 0.00 0.00 0.00 0.00 0.00 0.00 0.00 0.00 0.00 0.00 0.00 0.00 0.00 0.00 0.00 0.00 0.00 0.00 0.00 0.00 0.00 0.00 0.00 0.00 0.00 0.00 0.00 0.00 0.00 0.00 0.00 0.00 0.00 0.00 0.00 0.00 0.00 0.00 0.00 0.00 0.00 0.00 0.00 0.00 0.00 0.00 0.00 0.00 0.00 0.00 0.00 0.00 0.00 0.00 0.00 0.00 0.00 0.00 0.00 0.00 0.00 0.00 0.00 0.00 0.00 0.00
0.00 0.00 0.00 0.00 0.00 0.00 0.00 0.00 0.00 0.00 0.00 0.00 0.00 0.00 0.00 0.00 0.00 0.00 0.00 0.00 0.00 0.00 0.00 0.00 0.00 0.00 0.00 0.00 0.00 0.00 0.00 0.00 0.00 0.00 0.00 0.00 0.00 0.00 0.00 0.00 0.00 0.00 0.00 0.00 0.00 0.00 0.00 0.00 0.00 0.00 0.00 0.00 0.00 0.00 0.00 0.00 0.00 0.00 0.00 0.00 0.00 0.00 0.00 0.00 0.00 0.00 0.00 0.00 0.00 0.00 0.00 0.00 0.00 0.00
0.00 0.00 0.00 0.00 0.00 0.00 0.00 0.00 0.00 0.00 0.00 0.00 0.00 0.00 0.00 0.00 0.00 0.00 0.00 0.00 0.00 0.00 0.00 0.00 0.00 0.00 0.00 0.00 0.00 0.00 0.00 0.00 0.00 0.00 0.00 0.00 0.00 0.00 0.00 0.00 0.00 0.00 0.00 0.00 0.00 0.00 0.00 0.00 0.00 0.00 0.00 0.00 0.00 0.00 0.00 0.00 0.00 0.00 0.00 0.00 0.00 0.00 0.00 0.00 0.00 0.00 0.00 0.00 0.00 0.00 0.00 0.00 0.00 0.00
0.00 0.00 0.00 0.00 0.00 0.00 0.00 0.00 0.00 0.00 0.00 0.00 0.00 0.00 0.00 0.00 0.00 0.00 0.00 0.00 0.00 0.00 0.00 0.00 0.00 0.00 0.00 0.00 0.00 0.00 0.00 0.00 0.00 0.00 0.00 0.00 0.00 0.00 0.00 0.00 0.00 0.00 0.00 0.00 0.00 0.00 0.00 0.00 0.00 0.00 0.00 0.00 0.00 0.00 0.00 0.00 0.00 0.00 0.00 0.00 0.00 0.00 0.00 0.00 0.00 0.00 0.00 0.00 0.00 0.00 0.00 0.00 0.00 0.00
0.00 0.00 0.00 0.00 0.00 0.00 0.01 0.07 0.00 0.01 0.00 0.00 0.00 0.00 0.00 0.00 0.00 0.00 0.00 0.00 0.00 0.00 0.00 0.00 0.00 0.00 0.00 0.00 0.00 0.00 0.00 0.00 0.00 0.00 0.00 0.00 0.00 0.00 0.00 0.00 0.00 0.00 0.00 0.00 0.00 0.00 0.00 0.00 0.00 0.00 0.00 0.00 0.00 0.00 0.00 0.00 0.00 0.00 0.00 0.00 0.00 0.00 0.00 0.00 0.00 0.00 0.00 0.00 0.00 0.00 0.00 0.00 0.00 0.00
0.00 0.00 0.00 0.00 0.00 0.00 0.00 0.01 0.00 0.00 0.00 0.00 0.00 0.00 0.00 0.00 0.00 0.00 0.00 0.00 0.00 0.00 0.00 0.00 0.00 0.00 0.00 0.00 0.00 0.00 0.00 0.00 0.00 0.00 0.00 0.00 0.00 0.00 0.00 0.00 0.00 0.00 0.00 0.00 0.00 0.00 0.00 0.00 0.00 0.00 0.00 0.00 0.00 0.00 0.00 0.00 0.00 0.00 0.00 0.00 0.00 0.00 0.00 0.00 0.00 0.00 0.00 0.00 0.00 0.00 0.00 0.00 0.00 0.00
0.00 0.00 0.00 0.00 0.00 0.00 0.00 0.00 0.00 0.00 0.00 0.00 0.00 0.00 0.00 0.00 0.00 0.00 0.00 0.00 0.00 0.00 0.00 0.00 0.00 0.00 0.00 0.00 0.00 0.00 0.00 0.00 0.00 0.00 0.00 0.00 0.00 0.00 0.00 0.00 0.00 0.00 0.00 0.00 0.00 0.00 0.00 0.00 0.00 0.00 0.00 0.00 0.00 0.00 0.00 0.00 0.00 0.00 0.00 0.00 0.00 0.00 0.00 0.00 0.00 0.00 0.00 0.00 0.00 0.00 0.00 0.00 0.00 0.00
0.01 0.00 0.00 0.00 0.00 0.00 0.00 0.00 0.00 0.00 0.00 0.00 0.00 0.00 0.01 0.00 0.00 0.00 0.00 0.00 0.00 0.00 0.00 0.00 0.00 0.00 0.00 0.00 0.00 0.00 0.00 0.00 0.00 0.00 0.00 0.00 0.00 0.00 0.00 0.00 0.00 0.00 0.00 0.00 0.00 0.00 0.00 0.00 0.00 0.00 0.00 0.00 0.00 0.00 0.00 0.00 0.00 0.00 0.00 0.00 0.00 0.00 0.00 0.00 0.00 0.00 0.00 0.00 0.00 0.00 0.00 0.00 0.00 0.00
0.01 0.01 0.00 0.00 0.00 0.00 0.02 0.58 0.00 0.00 0.00 0.01 0.00 0.00 0.00 0.00 0.02 0.00 0.00 0.00 0.00 0.00 0.00 0.00 0.00 0.00 0.00 0.00 0.00 0.00 0.00 0.00 0.00 0.00 0.00 0.00 0.00 0.00 0.00 0.00 0.00 0.00 0.00 0.00 0.00 0.00 0.00 0.00 0.00 0.00 0.00 0.00 0.00 0.00 0.00 0.00 0.00 0.00 0.00 0.00 0.00 0.00 0.00 0.00 0.00 0.00 0.00 0.00 0.00 0.00 0.00 0.00 0.00 0.00
0.04 0.16 0.08 0.01 0.00 0.00 0.00 0.00 0.03 0.00 0.00 0.00 0.00 0.00 0.00 0.00 0.00 0.00 0.00 0.00 0.00 0.00 0.00 0.00 0.00 0.00 0.00 0.00 0.00 0.00 0.00 0.00 0.00 0.00 0.00 0.00 0.00 0.00 0.00 0.00 0.00 0.00 0.00 0.00 0.00 0.00 0.00 0.00 0.00 0.00 0.00 0.00 0.00 0.00 0.00 0.00 0.00 0.00 0.00 0.00 0.00 0.00 0.00 0.00 0.00 0.00 0.00 0.00 0.00 0.00 0.00 0.00 0.00 0.00
0.13 0.13 0.01 0.01 0.00 0.00 0.00 0.00 0.00 0.01 0.00 0.00 0.00 0.00 0.00 0.00 0.00 0.00 0.00 0.00 0.00 0.00 0.00 0.00 0.00 0.00 0.00 0.00 0.00 0.00 0.00 0.00 0.00 0.00 0.00 0.00 0.00 0.00 0.00 0.00 0.00 0.00 0.00 0.00 0.00 0.00 0.00 0.00 0.00 0.00 0.00 0.00 0.00 0.00 0.00 0.00 0.00 0.00 0.00 0.00 0.00 0.00 0.00 0.00 0.00 0.00 0.00 0.00 0.00 0.00 0.00 0.00 0.00 0.00
0.08 0.01 0.00 0.00 0.01 0.00 0.00 0.00 0.00 0.00 0.00 0.00 0.00 0.00 0.00 0.00 0.00 0.00 0.00 0.00 0.00 0.00 0.00 0.00 0.00 0.00 0.00 0.00 0.00 0.00 0.00 0.00 0.00 0.00 0.00 0.00 0.00 0.00 0.00 0.00 0.00 0.00 0.00 0.00 0.00 0.00 0.00 0.00 0.00 0.00 0.00 0.00 0.00 0.00 0.00 0.00 0.00 0.00 0.00 0.00 0.00 0.00 0.00 0.00 0.00 0.00 0.00 0.00 0.00 0.00 0.00 0.00 0.00 0.00
0.00 0.00 0.00 0.00 0.00 0.00 0.00 0.00 0.00 0.00 0.00 0.00 0.00 0.00 0.00 0.00 0.00 0.00 0.00 0.00 0.00 0.00 0.00 0.00 0.00 0.00 0.00 0.00 0.00 0.00 0.00 0.00 0.00 0.00 0.00 0.00 0.00 0.00 0.00 0.00 0.00 0.00 0.00 0.00 0.00 0.00 0.00 0.00 0.00 0.00 0.00 0.00 0.00 0.00 0.00 0.00 0.00 0.00 0.00 0.00 0.00 0.00 0.00 0.00 0.00 0.00 0.00 0.00 0.00 0.00 0.00 0.00 0.00 0.00
0.00 0.00 0.00 0.00 0.00 0.00 0.00 0.00 0.00 0.00 0.00 0.00 0.00 0.00 0.00 0.00 0.00 0.00 0.00 0.00 0.00 0.00 0.00 0.00 0.00 0.00 0.00 0.00 0.00 0.00 0.00 0.00 0.00 0.00 0.00 0.00 0.00 0.00 0.00 0.00 0.00 0.00 0.00 0.00 0.00 0.00 0.00 0.00 0.00 0.00 0.00 0.00 0.00 0.00 0.00 0.00 0.00 0.00 0.00 0.00 0.00 0.00 0.00 0.00 0.00 0.00 0.00 0.00 0.00 0.00 0.00 0.00 0.00 0.00
0.00 0.00 0.00 0.00 0.00 0.00 0.00 0.00 0.00 0.00 0.00 0.00 0.00 0.00 0.00 0.00 0.00 0.00 0.00 0.00 0.00 0.00 0.00 0.00 0.00 0.00 0.00 0.00 0.00 0.00 0.00 0.00 0.00 0.00 0.00 0.00 0.00 0.00 0.00 0.00 0.00 0.00 0.00 0.00 0.00 0.00 0.00 0.00 0.00 0.00 0.00 0.00 0.00 0.00 0.00 0.00 0.00 0.00 0.00 0.00 0.00 0.00 0.00 0.00 0.00 0.00 0.00 0.00 0.00 0.00 0.00 0.00 0.00 0.00
0.00 0.00 0.00 0.00 0.00 0.00 0.00 0.00 0.00 0.00 0.00 0.00 0.00 0.00 0.00 0.00 0.00 0.00 0.00 0.00 0.00 0.00 0.00 0.00 0.00 0.00 0.00 0.00 0.00 0.00 0.00 0.00 0.00 0.00 0.00 0.00 0.00 0.00 0.00 0.00 0.00 0.00 0.00 0.00 0.00 0.00 0.00 0.00 0.00 0.00 0.00 0.00 0.00 0.00 0.00 0.00 0.00 0.00 0.00 0.00 0.00 0.00 0.00 0.00 0.00 0.00 0.00 0.00 0.00 0.00 0.00 0.00 0.00 0.00
0.00 0.00 0.00 0.00 0.00 0.00 0.00 0.00 0.00 0.00 0.00 0.00 0.00 0.00 0.00 0.00 0.00 0.00 0.00 0.00 0.00 0.00 0.00 0.00 0.00 0.00 0.00 0.00 0.00 0.00 0.00 0.00 0.00 0.00 0.00 0.00 0.00 0.00 0.00 0.00 0.00 0.00 0.00 0.00 0.00 0.00 0.00 0.00 0.00 0.00 0.00 0.00 0.00 0.00 0.00 0.00 0.00 0.00 0.00 0.00 0.00 0.00 0.00 0.00 0.00 0.00 0.00 0.00 0.00 0.00 0.00 0.00 0.00 0.00
0.00 0.00 0.00 0.00 0.00 0.00 0.00 0.00 0.00 0.00 0.00 0.00 0.00 0.00 0.00 0.00 0.00 0.00 0.00 0.00 0.00 0.00 0.00 0.00 0.00 0.00 0.00 0.00 0.00 0.00 0.00 0.00 0.00 0.00 0.00 0.00 0.00 0.00 0.00 0.00 0.00 0.00 0.00 0.00 0.00 0.00 0.00 0.00 0.00 0.00 0.00 0.00 0.00 0.00 0.00 0.00 0.00 0.00 0.00 0.00 0.00 0.00 0.00 0.00 0.00 0.00 0.00 0.00 0.00 0.00 0.00 0.00 0.00 0.00
0.00 0.00 0.00 0.00 0.00 0.00 0.00 0.00 0.00 0.00 0.00 0.00 0.00 0.00 0.00 0.00 0.00 0.00 0.00 0.00 0.00 0.00 0.00 0.00 0.00 0.00 0.00 0.00 0.00 0.00 0.00 0.00 0.00 0.00 0.00 0.00 0.00 0.00 0.00 0.00 0.00 0.00 0.00 0.00 0.00 0.00 0.00 0.00 0.00 0.00 0.00 0.00 0.00 0.00 0.00 0.00 0.00 0.00 0.00 0.00 0.00 0.00 0.00 0.00 0.00 0.00 0.00 0.00 0.00 0.00 0.00 0.00 0.00 0.00
0.00 0.00 0.00 0.00 0.00 0.00 0.00 0.00 0.00 0.00 0.00 0.00 0.00 0.00 0.00 0.00 0.00 0.00 0.00 0.00 0.00 0.00 0.00 0.00 0.00 0.00 0.00 0.00 0.00 0.00 0.00 0.00 0.00 0.00 0.00 0.00 0.00 0.00 0.00 0.00 0.00 0.00 0.00 0.00 0.00 0.00 0.00 0.00 0.00 0.00 0.00 0.00 0.00 0.00 0.00 0.00 0.00 0.00 0.00 0.00 0.00 0.00 0.00 0.00 0.00 0.00 0.00 0.00 0.00 0.00 0.00 0.00 0.00 0.00
0.00 0.00 0.00 0.00 0.00 0.00 0.00 0.00 0.00 0.00 0.00 0.00 0.00 0.00 0.00 0.00 0.00 0.00 0.00 0.00 0.00 0.00 0.00 0.00 0.00 0.00 0.00 0.00 0.00 0.00 0.00 0.00 0.00 0.00 0.00 0.00 0.00 0.00 0.00 0.00 0.00 0.00 0.00 0.00 0.00 0.00 0.00 0.00 0.00 0.00 0.00 0.00 0.00 0.00 0.00 0.00 0.00 0.00 0.00 0.00 0.00 0.00 0.00 0.00 0.00 0.00 0.00 0.00 0.00 0.00 0.00 0.00 0.00 0.00
0.00 0.00 0.00 0.00 0.00 0.00 0.00 0.00 0.00 0.00 0.00 0.00 0.00 0.00 0.00 0.00 0.00 0.00 0.00 0.00 0.00 0.00 0.00 0.00 0.00 0.00 0.00 0.00 0.00 0.00 0.00 0.00 0.00 0.00 0.00 0.00 0.00 0.00 0.00 0.00 0.00 0.00 0.00 0.00 0.00 0.00 0.00 0.00 0.00 0.00 0.00 0.00 0.01 0.00 0.00 0.00 0.00 0.00 0.00 0.00 0.00 0.00 0.00 0.00 0.00 0.00 0.00 0.00 0.00 0.00 0.00 0.00 0.00 0.00
0.00 0.00 0.00 0.00 0.00 0.00 0.00 0.00 0.00 0.00 0.00 0.00 0.00 0.00 0.00 0.00 0.00 0.00 0.00 0.00 0.00 0.00 0.00 0.00 0.00 0.00 0.00 0.00 0.00 0.00 0.00 0.00 0.00 0.00 0.00 0.00 0.00 0.00 0.00 0.00 0.00 0.00 0.00 0.00 0.00 0.00 0.00 0.00 0.00 0.00 0.00 0.00 0.00 0.00 0.00 0.00 0.00 0.00 0.00 0.00 0.00 0.00 0.00 0.00 0.00 0.00 0.00 0.00 0.00 0.00 0.00 0.00 0.00 0.00
0.00 0.00 0.00 0.00 0.00 0.00 0.00 0.00 0.00 0.00 0.00 0.00 0.00 0.00 0.00 0.00 0.00 0.00 0.00 0.00 0.00 0.00 0.00 0.00 0.00 0.00 0.00 0.00 0.00 0.00 0.00 0.00 0.00 0.00 0.00 0.00 0.00 0.00 0.00 0.00 0.00 0.00 0.00 0.00 0.00 0.00 0.00 0.00 0.00 0.00 0.01 0.00 0.00 0.00 0.00 0.01 0.00 0.00 0.00 0.00 0.00 0.00 0.00 0.00 0.00 0.00 0.00 0.00 0.00 0.00 0.00 0.00 0.00 0.00
0.00 0.00 0.00 0.00 0.00 0.00 0.00 0.00 0.00 0.00 0.00 0.00 0.00 0.00 0.00 0.00 0.00 0.00 0.00 0.00 0.00 0.00 0.00 0.00 0.00 0.00 0.00 0.00 0.00 0.00 0.00 0.00 0.00 0.00 0.00 0.00 0.00 0.00 0.00 0.00 0.00 0.00 0.00 0.00 0.00 0.00 0.00 0.00 0.00 0.00 0.01 0.00 0.00 0.00 0.00 0.01 0.00 0.00 0.00 0.00 0.00 0.01 0.00 0.00 0.00 0.00 0.00 0.00 0.00 0.00 0.00 0.00 0.00 0.00
0.00 0.00 0.00 0.00 0.00 0.00 0.00 0.00 0.00 0.00 0.00 0.00 0.00 0.00 0.00 0.00 0.00 0.00 0.00 0.00 0.00 0.00 0.00 0.00 0.00 0.00 0.00 0.00 0.00 0.00 0.00 0.00 0.00 0.00 0.00 0.00 0.00 0.00 0.00 0.00 0.00 0.00 0.00 0.00 0.00 0.00 0.00 0.00 0.00 0.00 0.00 0.00 0.00 0.00 0.00 0.00 0.00 0.00 0.00 0.00 0.00 0.00 0.00 0.00 0.00 0.00 0.00 0.00 0.00 0.00 0.00 0.00 0.00 0.01
0.00 0.00 0.00 0.00 0.00 0.00 0.00 0.00 0.00 0.00 0.00 0.00 0.00 0.00 0.00 0.00 0.00 0.00 0.00 0.00 0.00 0.00 0.00 0.00 0.00 0.00 0.00 0.00 0.00 0.00 0.00 0.00 0.00 0.00 0.00 0.00 0.00 0.00 0.00 0.00 0.00 0.00 0.00 0.00 0.00 0.00 0.00 0.00 0.00 0.00 0.00 0.00 0.00 0.00 0.01 0.00 0.00 0.00 0.00 0.00 0.00 0.00 0.00 0.00 0.00 0.00 0.00 0.00 0.00 0.00 0.00 0.00 0.00 0.00
0.00 0.00 0.00 0.00 0.00 0.00 0.00 0.00 0.00 0.00 0.00 0.00 0.00 0.00 0.00 0.00 0.00 0.00 0.00 0.00 0.00 0.00 0.00 0.00 0.00 0.00 0.00 0.00 0.00 0.00 0.00 0.00 0.00 0.00 0.00 0.00 0.00 0.00 0.00 0.00 0.00 0.00 0.00 0.00 0.00 0.00 0.00 0.00 0.00 0.00 0.00 0.00 0.00 0.00 0.00 0.00 0.00 0.00 0.00 0.00 0.00 0.00 0.00 0.00 0.00 0.00 0.01 0.01 0.01 0.01 0.01 0.00 0.00 0.00
0.00 0.00 0.00 0.00 0.00 0.00 0.00 0.00 0.00 0.00 0.00 0.00 0.00 0.00 0.00 0.00 0.00 0.00 0.00 0.00 0.00 0.00 0.00 0.00 0.00 0.00 0.00 0.00 0.00 0.00 0.00 0.00 0.00 0.00 0.00 0.00 0.00 0.00 0.00 0.00 0.00 0.00 0.00 0.00 0.00 0.00 0.00 0.00 0.00 0.00 0.00 0.00 0.00 0.00 0.00 0.00 0.00 0.00 0.00 0.00 0.00 0.00 0.00 0.00 0.00 0.01 0.01 0.01 0.01 0.02 0.01 0.00 0.00 0.00
0.00 0.00 0.00 0.00 0.00 0.00 0.00 0.00 0.00 0.00 0.00 0.00 0.00 0.00 0.00 0.00 0.00 0.00 0.00 0.00 0.00 0.00 0.00 0.00 0.00 0.00 0.00 0.00 0.00 0.00 0.00 0.00 0.00 0.00 0.00 0.00 0.00 0.00 0.00 0.00 0.00 0.00 0.00 0.00 0.00 0.00 0.00 0.00 0.00 0.00 0.00 0.00 0.00 0.00 0.00 0.00 0.00 0.00 0.00 0.00 0.00 0.00 0.00 0.00 0.00 0.01 0.00 0.01 0.01 0.02 0.02 0.01 0.00 0.00
0.00 0.00 0.00 0.00 0.00 0.00 0.00 0.00 0.00 0.00 0.00 0.00 0.00 0.00 0.00 0.00 0.00 0.00 0.00 0.00 0.00 0.00 0.00 0.00 0.00 0.00 0.00 0.00 0.00 0.00 0.00 0.00 0.00 0.00 0.00 0.00 0.00 0.00 0.00 0.00 0.00 0.00 0.00 0.00 0.00 0.00 0.00 0.00 0.00 0.00 0.01 0.01 0.01 0.00 0.00 0.00 0.00 0.00 0.00 0.00 0.00 0.00 0.00 0.00 0.00 0.00 0.00 0.01 0.01 0.01 0.01 0.01 0.01 0.00
0.00 0.00 0.00 0.00 0.00 0.00 0.00 0.00 0.00 0.00 0.00 0.00 0.00 0.00 0.00 0.00 0.00 0.00 0.00 0.00 0.00 0.00 0.00 0.00 0.00 0.00 0.00 0.00 0.00 0.00 0.00 0.00 0.00 0.00 0.00 0.00 0.00 0.00 0.00 0.00 0.00 0.00 0.00 0.00 0.00 0.00 0.00 0.00 0.00 0.00 0.01 0.01 0.00 0.00 0.00 0.00 0.00 0.00 0.00 0.00 0.01 0.01 0.00 0.01 0.01 0.00 0.00 0.00 0.00 0.01 0.01 0.01 0.01 0.01
0.00 0.00 0.00 0.00 0.00 0.00 0.00 0.00 0.00 0.00 0.00 0.00 0.00 0.00 0.00 0.00 0.00 0.00 0.00 0.00 0.00 0.00 0.00 0.00 0.00 0.00 0.00 0.00 0.00 0.00 0.00 0.00 0.00 0.00 0.00 0.00 0.00 0.00 0.00 0.00 0.00 0.00 0.00 0.00 0.00 0.00 0.00 0.00 0.00 0.01 0.01 0.01 0.01 0.01 0.01 0.01 0.00 0.00 0.00 0.00 0.00 0.00 0.01 0.01 0.01 0.00 0.00 0.00 0.00 0.01 0.01 0.01 0.02 0.01
0.00 0.00 0.00 0.00 0.00 0.00 0.00 0.00 0.00 0.00 0.00 0.00 0.00 0.00 0.00 0.00 0.00 0.00 0.00 0.00 0.00 0.00 0.00 0.00 0.00 0.00 0.00 0.00 0.00 0.00 0.00 0.00 0.00 0.00 0.00 0.00 0.00 0.00 0.00 0.00 0.00 0.00 0.00 0.00 0.00 0.00 0.00 0.00 0.00 0.01 0.02 0.03 0.03 0.02 0.02 0.01 0.00 0.00 0.00 0.00 0.00 0.01 0.01 0.01 0.01 0.00 0.00 0.00 0.00 0.01 0.01 0.01 0.01 0.01
0.00 0.00 0.00 0.00 0.00 0.00 0.00 0.00 0.00 0.00 0.00 0.00 0.00 0.00 0.00 0.00 0.00 0.00 0.00 0.00 0.00 0.00 0.00 0.00 0.00 0.00 0.00 0.00 0.00 0.00 0.00 0.00 0.00 0.00 0.00 0.00 0.00 0.00 0.00 0.00 0.00 0.00 0.00 0.00 0.00 0.00 0.00 0.00 0.00 0.00 0.01 0.02 0.02 0.02 0.01 0.00 0.00 0.01 0.01 0.01 0.01 0.01 0.01 0.01 0.01 0.01 0.01 0.00 0.01 0.01 0.01 0.02 0.02 0.02
0.00 0.00 0.00 0.00 0.00 0.00 0.00 0.00 0.00 0.00 0.00 0.00 0.00 0.00 0.00 0.00 0.00 0.00 0.00 0.00 0.00 0.00 0.00 0.00 0.00 0.00 0.00 0.00 0.00 0.00 0.00 0.00 0.00 0.00 0.00 0.00 0.00 0.00 0.00 0.00 0.00 0.00 0.00 0.00 0.00 0.00 0.00 0.00 0.00 0.01 0.02 0.03 0.02 0.01 0.01 0.01 0.00 0.00 0.00 0.01 0.01 0.01 0.01 0.01 0.01 0.01 0.01 0.02 0.02 0.01 0.01 0.01 0.01 0.00
0.00 0.00 0.00 0.00 0.00 0.00 0.00 0.00 0.00 0.00 0.00 0.00 0.00 0.00 0.00 0.00 0.00 0.00 0.00 0.00 0.00 0.00 0.00 0.00 0.00 0.00 0.00 0.00 0.00 0.00 0.00 0.00 0.00 0.00 0.00 0.00 0.00 0.00 0.00 0.00 0.00 0.00 0.00 0.00 0.00 0.00 0.00 0.00 0.00 0.01 0.01 0.02 0.01 0.01 0.00 0.00 0.00 0.00 0.00 0.02 0.02 0.01 0.01 0.01 0.01 0.01 0.01 0.01 0.01 0.01 0.02 0.03 0.02 0.03
0.00 0.00 0.00 0.00 0.00 0.00 0.00 0.00 0.00 0.00 0.00 0.00 0.00 0.00 0.00 0.00 0.00 0.00 0.00 0.00 0.00 0.00 0.00 0.00 0.00 0.00 0.00 0.00 0.00 0.00 0.00 0.00 0.00 0.00 0.00 0.00 0.00 0.00 0.01 0.00 0.00 0.00 0.00 0.00 0.00 0.00 0.00 0.00 0.00 0.01 0.01 0.01 0.01 0.00 0.00 0.00 0.00 0.00 0.01 0.01 0.02 0.02 0.02 0.02 0.01 0.02 0.03 0.03 0.02 0.02 0.02 0.01 0.01 0.01
0.00 0.00 0.00 0.00 0.00 0.00 0.00 0.00 0.00 0.00 0.00 0.00 0.00 0.00 0.00 0.00 0.00 0.00 0.00 0.00 0.00 0.00 0.00 0.00 0.00 0.00 0.00 0.00 0.00 0.00 0.00 0.00 0.00 0.00 0.00 0.00 0.00 0.00 0.00 0.00 0.00 0.00 0.00 0.00 0.00 0.00 0.00 0.00 0.00 0.01 0.00 0.00 0.00 0.00 0.00 0.00 0.00 0.00 0.01 0.02 0.02 0.02 0.02 0.03 0.03 0.02 0.02 0.02 0.02 0.02 0.01 0.01 0.01 0.01
MSLP
1021.23 1021.27 1021.23 1021.15 1021.23 1021.27 1021.23 1021.19 1021.27 1021.31 1021.27 1021.19 1021.27 1021.19 1021.43 1021.51 1022.19 1022.95 1023.19 1023.43 1023.51 1023.47 1023.11 1023.31 1023.79 1023.67 1023.83 1023.91 1023.91 1023.99 1024.03 1024.39 1024.27 1023.91 1024.15 1024.43 1024.75 1025.15 1025.07 1024.99 1024.87 1024.75 1024.63 1024.51 1024.39 1024.27 1024.11 1023.99 1023.83 1023.71 1023.55 1023.39 1023.23 1023.11 1022.95 1022.83 1022.71 1022.59 1022.47 1022.39 1022.31 1022.11 1021.87 1021.71 1021.63 1021.59 1021.55 1021.43 1021.31 1021.27 1021.23 1021.15 1021.03 1020.95
1021.43 1021.51 1021.43 1021.39 1021.47 1021.55 1021.47 1021.67 1021.63 1021.59 1021.55 1021.47 1021.43 1021.35 1021.27 1021.19 1021.55 1021.99 1022.59 1023.51 1023.23 1023.67 1023.67 1023.39 1023.63 1023.75 1023.79 1023.87 1023.99 1023.87 1024.15 1024.63 1024.31 1023.95 1024.11 1024.31 1024.75 1025.15 1024.99 1024.99 1024.95 1024.87 1024.75 1024.67 1024.51 1024.39 1024.23 1024.11 1023.95 1023.83 1023.67 1023.55 1023.39 1023.23 1023.11 1022.99 1022.87 1022.71 1022.59 1022.51 1022.39 1022.23 1022.07 1021.95 1021.75 1021.63 1021.51 1021.39 1021.31 1021.23 1021.07 1020.99 1020.87 1020.79
1021.75 1021.91 1021.95 1021.83 1021.91 1021.91 1022.03 1021.99 1021.91 1021.83 1021.67 1021.59 1021.47 1021.55 1021.47 1021.63 1021.63 1021.87 1022.35 1023.43 1023.71 1023.27 1023.91 1024.07 1023.83 1023.91 1023.87 1023.79 1024.07 1024.19 1024.19 1024.51 1024.39 1024.15 1024.11 1024.11 1024.67 1024.79 1024.75 1024.79 1024.91 1024.87 1024.79 1024.71 1024.59 1024.43 1024.31 1024.19 1024.03 1023.91 1023.79 1023.63 1023.47 1023.35 1023.19 1023.07 1022.95 1022.87 1022.75 1022.63 1022.47 1022.31 1022.11 1021.95 1021.79 1021.67 1021.51 1021.39 1021.27 1021.15 1020.99 1020.83 1020.75 1020.63
1021.95 1022.11 1022.15 1022.11 1022.07 1022.11 1021.99 1022.03 1022.07 1022.07 1021.99 1021.79 1021.75 1021.83 1021.99 1022.11 1022.11 1021.99 1022.07 1022.87 1023.95 1023.75 1023.79 1024.03 1024.11 1024.11 1024.19 1023.91 1023.87 1024.07 1024.07 1024.51 1024.47 1023.95 1024.11 1024.23 1024.35 1024.27 1024.19 1024.63 1024.63 1024.75 1024.75 1024.67 1024.59 1024.47 1024.35 1024.27 1024.11 1023.99 1023.83 1023.71 1023.55 1023.43 1023.27 1023.11 1022.95 1022.79 1022.67 1022.55 1022.43 1022.27 1022.07 1021.95 1021.83 1021.71 1021.51 1021.39 1021.31 1021.11 1020.99 1020.83 1020.67 1020.55
1021.91 1021.91 1022.11 1022.27 1022.31 1022.15 1022.11 1022.19 1022.19 1022.11 1022.23 1022.19 1022.11 1022.11 1022.19 1022.39 1022.39 1022.31 1022.67 1023.31 1023.95 1024.19 1024.03 1023.95 1023.99 1024.19 1024.07 1023.95 1023.95 1024.03 1024.23 1024.27 1024.23 1024.19 1024.07 1024.07 1023.83 1023.67 1023.51 1023.95 1024.47 1024.51 1024.63 1024.59 1024.55 1024.43 1024.31 1024.23 1024.11 1023.99 1023.87 1023.71 1023.55 1023.43 1023.27 1023.15 1023.03 1022.87 1022.75 1022.63 1022.51 1022.35 1022.19 1022.03 1021.87 1021.67 1021.47 1021.27 1021.15 1021.03 1020.91 1020.79 1020.59 1020.47
1022.03 1022.15 1022.15 1022.23 1022.35 1022.23 1022.31 1022.27 1021.99 1022.19 1022.19 1022.11 1022.11 1022.23 1022.23 1022.47 1022.71 1022.51 1022.51 1023.03 1023.43 1024.19 1024.19 1024.07 1023.99 1024.23 1024.23 1023.99 1024.15 1024.31 1024.39 1024.35 1024.11 1023.79 1023.91 1023.87 1023.75 1023.63 1023.51 1023.19 1023.87 1024.31 1024.47 1024.51 1024.51 1024.35 1024.23 1024.11 1023.95 1023.87 1023.75 1023.63 1023.51 1023.35 1023.23 1023.11 1022.99 1022.87 1022.75 1022.59 1022.47 1022.31 1022.19 1022.07 1021.91 1021.67 1021.43 1021.19 1020.99 1020.83 1020.75 1020.71 1020.59 1020.39
1022.11 1022.31 1022.43 1022.51 1022.59 1022.59 1022.55 1022.47 1022.23 1022.35 1022.23 1021.95 1022.27 1022.55 1022.51 1022.79 1022.83 1022.71 1022.63 1022.87 1023.43 1023.75 1023.95 1023.95 1023.95 1024.03 1024.27 1024.15 1023.95 1024.03 1024.19 1024.23 1023.99 1023.75 1023.71 1023.63 1023.55 1023.63 1023.63 1023.43 1023.35 1024.19 1024.27 1024.43 1024.35 1024.27 1024.11 1023.99 1023.87 1023.71 1023.59 1023.47 1023.39 1023.27 1023.11 1023.03 1022.91 1022.79 1022.67 1022.55 1022.43 1022.27 1022.11 1021.99 1021.83 1021.63 1021.39 1021.19 1020.99 1020.83 1020.67 1020.55 1020.39 1020.23
1022.11 1022.23 1022.47 1022.59 1022.71 1022.75 1022.83 1022.67 1022.63 1022.55 1022.55 1022.43 1022.51 1022.79 1022.87 1023.03 1023.15 1023.19 1023.11 1022.95 1023.03 1023.35 1023.71 1023.79 1023.31 1023.79 1024.03 1024.11 1023.87 1023.87 1023.79 1024.07 1023.99 1023.79 1023.67 1023.51 1023.51 1023.51 1023.43 1023.39 1023.15 1023.75 1024.07 1024.19 1024.15 1024.07 1023.91 1023.79 1023.67 1023.55 1023.43 1023.35 1023.23 1023.11 1022.99 1022.91 1022.79 1022.67 1022.55 1022.43 1022.35 1022.23 1022.11 1021.91 1021.79 1021.63 1021.43 1021.19 1021.03 1020.87 1020.67 1020.51 1020.31 1020.07
1022.07 1022.19 1022.35 1022.43 1022.55 1022.75 1022.79 1022.91 1022.75 1022.63 1022.87 1022.47 1022.71 1022.75 1022.79 1022.83 1023.19 1023.31 1023.15 1023.07 1023.07 1023.23 1023.55 1023.91 1023.91 1023.87 1023.71 1023.71 1023.91 1023.79 1023.71 1023.39 1023.31 1023.27 1023.31 1023.39 1023.47 1023.47 1023.55 1023.27 1023.19 1023.43 1023.75 1023.83 1023.83 1023.75 1023.59 1023.47 1023.47 1023.35 1023.23 1023.11 1023.03 1022.91 1022.83 1022.71 1022.63 1022.55 1022.47 1022.39 1022.31 1022.19 1022.03 1021.87 1021.75 1021.59 1021.39 1021.19 1021.03 1020.79 1020.59 1020.43 1020.23 1019.99
1022.15 1022.27 1022.27 1022.31 1022.51 1022.67 1022.83 1022.87 1022.83 1022.87 1022.95 1022.87 1022.91 1022.87 1022.71 1022.75 1023.23 1023.39 1023.43 1023.35 1023.39 1023.31 1023.43 1023.63 1023.91 1023.95 1023.87 1023.71 1023.83 1023.79 1023.79 1023.87 1023.67 1023.51 1023.39 1023.11 1023.07 1023.23 1023.27 1023.19 1023.07 1023.11 1023.15 1023.15 1023.23 1023.31 1023.07 1022.99 1023.11 1022.99 1022.91 1022.83 1022.79 1022.71 1022.63 1022.51 1022.43 1022.35 1022.35 1022.31 1022.23 1022.11 1021.95 1021.75 1021.59 1021.39 1021.23 1021.07 1020.87 1020.67 1020.47 1020.27 1020.07 1019.87
1021.99 1022.15 1022.23 1022.35 1022.47 1022.67 1022.83 1023.27 1023.43 1023.31 1023.11 1023.19 1023.11 1023.07 1023.23 1022.99 1023.27 1023.39 1023.23 1023.19 1023.39 1023.43 1023.51 1023.55 1023.59 1023.59 1023.87 1024.03 1023.83 1023.47 1023.79 1023.63 1023.51 1023.67 1023.71 1023.55 1023.07 1023.07 1023.19 1023.07 1022.79 1022.83 1022.91 1022.87 1022.95 1022.87 1022.75 1022.75 1022.55 1022.43 1022.47 1022.43 1022.47 1022.47 1022.35 1022.23 1022.19 1022.19 1022.19 1022.11 1022.03 1021.91 1021.75 1021.59 1021.43 1021.23 1021.03 1020.87 1020.71 1020.51 1020.35 1020.15 1019.95 1019.75
1021.79 1021.87 1021.99 1022.11 1022.27 1022.55 1022.67 1022.91 1022.95 1023.27 1023.63 1023.19 1023.15 1023.07 1023.23 1023.23 1023.43 1023.35 1023.35 1023.43 1023.27 1023.31 1023.43 1023.31 1023.31 1023.43 1023.51 1023.63 1023.75 1023.59 1023.55 1023.59 1023.47 1023.63 1024.03 1023.91 1023.55 1023.27 1023.11 1022.87 1022.63 1022.63 1022.83 1022.67 1022.31 1022.31 1022.39 1022.27 1022.11 1022.07 1021.95 1021.99 1022.15 1022.07 1021.91 1021.83 1021.87 1022.03 1021.95 1021.91 1021.83 1021.71 1021.63 1021.47 1021.27 1021.11 1020.91 1020.71 1020.55 1020.35 1020.19 1019.99 1019.83 1019.63
1021.51 1021.59 1021.71 1021.87 1021.95 1022.15 1022.43 1022.67 1022.87 1023.03 1023.23 1023.11 1023.15 1023.23 1023.39 1023.55 1023.55 1023.43 1023.27 1023.19 1023.19 1022.99 1023.19 1023.07 1023.19 1023.23 1022.99 1022.87 1023.31 1023.75 1023.83 1023.95 1024.07 1024.07 1024.03 1023.91 1023.55 1023.27 1023.07 1022.67 1022.35 1022.55 1022.75 1022.55 1022.39 1022.07 1021.91 1021.79 1021.63 1021.39 1020.99 1021.15 1021.67 1021.39 1021.47 1021.23 1021.59 1021.71 1021.67 1021.67 1021.67 1021.59 1021.51 1021.39 1021.23 1021.03 1020.83 1020.63 1020.43 1020.23 1020.03 1019.83 1019.63 1019.47
1021.31 1021.39 1021.47 1021.63 1021.91 1022.19 1022.51 1022.83 1023.07 1023.27 1023.39 1023.39 1023.35 1023.23 1023.63 1023.67 1023.55 1023.55 1023.39 1023.23 1023.03 1023.15 1023.15 1023.19 1023.51 1023.51 1023.23 1023.35 1023.75 1024.11 1024.03 1024.11 1024.15 1024.07 1023.99 1023.91 1023.55 1023.39 1023.07 1022.75 1022.35 1022.35 1022.63 1022.67 1022.43 1022.03 1021.71 1021.63 1021.43 1021.19 1020.95 1020.79 1021.07 1020.91 1020.71 1020.75 1021.23 1021.35 1021.51 1021.51 1021.51 1021.43 1021.35 1021.27 1021.15 1020.95 1020.79 1020.59 1020.35 1020.15 1019.95 1019.75 1019.55 1019.39
1021.31 1021.23 1021.15 1021.27 1021.75 1022.23 1022.55 1022.75 1022.99 1023.15 1023.47 1023.63 1023.71 1023.75 1023.79 1023.79 1023.79 1023.55 1023.51 1023.43 1023.51 1023.27 1023.39 1023.35 1023.59 1023.55 1023.83 1023.67 1023.63 1023.95 1023.95 1023.99 1024.15 1024.15 1024.11 1023.87 1023.63 1023.47 1023.43 1023.07 1022.55 1022.35 1022.83 1022.83 1022.63 1022.03 1021.63 1021.55 1021.19 1020.91 1020.79 1020.71 1020.67 1020.71 1020.63 1020.99 1021.19 1021.39 1021.43 1021.43 1021.35 1021.27 1021.19 1021.11 1021.03 1020.83 1020.67 1020.51 1020.31 1020.11 1019.91 1019.71 1019.51 1019.35
1021.07 1021.43 1021.51 1020.99 1021.31 1021.67 1021.91 1022.23 1022.63 1023.23 1023.63 1023.79 1024.03 1024.07 1024.15 1024.31 1024.43 1024.51 1024.07 1023.59 1023.51 1023.75 1023.71 1023.59 1023.59 1023.87 1023.67 1023.83 1023.95 1023.91 1024.19 1024.27 1024.43 1024.31 1024.19 1023.91 1023.79 1023.75 1023.63 1023.35 1023.07 1022.47 1022.79 1022.95 1022.67 1022.03 1021.47 1021.27 1021.15 1020.95 1020.71 1020.55 1020.47 1020.47 1020.59 1020.87 1021.07 1021.19 1021.27 1021.23 1021.19 1021.15 1021.07 1020.99 1020.87 1020.71 1020.55 1020.39 1020.19 1020.03 1019.83 1019.63 1019.43 1019.27
1021.75 1021.43 1020.75 1020.87 1021.19 1021.43 1022.15 1022.27 1022.19 1022.55 1023.51 1024.19 1024.35 1024.43 1024.59 1024.71 1024.67 1024.59 1024.55 1024.47 1024.31 1023.91 1023.91 1023.95 1023.95 1023.87 1024.07 1024.23 1023.87 1024.63 1024.95 1025.03 1024.83 1024.43 1024.07 1023.83 1023.91 1023.87 1023.75 1023.31 1022.99 1022.79 1023.07 1023.11 1022.71 1022.07 1021.51 1021.31 1020.91 1020.67 1020.39 1020.31 1020.19 1020.19 1020.27 1020.51 1020.83 1020.91 1020.87 1020.91 1020.95 1020.95 1020.91 1020.83 1020.75 1020.59 1020.43 1020.23 1020.07 1019.87 1019.71 1019.51 1019.35 1019.19
1021.15 1020.75 1020.91 1020.83 1021.07 1021.43 1022.03 1021.99 1021.99 1022.35 1023.03 1023.63 1024.03 1024.11 1023.99 1024.23 1024.71 1024.79 1024.79 1024.79 1024.87 1024.71 1024.31 1024.23 1024.27 1024.27 1024.63 1024.51 1024.67 1025.03 1025.23 1025.23 1024.95 1024.71 1024.47 1024.35 1024.27 1024.11 1023.91 1023.67 1023.51 1023.11 1023.03 1022.95 1022.75 1022.35 1021.47 1020.99 1020.91 1020.71 1020.31 1020.15 1020.03 1019.99 1020.03 1020.35 1020.43 1020.43 1020.47 1020.59 1020.67 1020.71 1020.71 1020.63 1020.55 1020.43 1020.23 1020.07 1019.87 1019.71 1019.51 1019.35 1019.19 1019.07
1020.71 1020.75 1020.83 1020.91 1020.87 1021.31 1021.55 1021.67 1021.95 1022.39 1022.91 1023.19 1023.35 1023.43 1023.63 1023.83 1023.99 1024.19 1024.43 1024.55 1024.51 1024.43 1024.43 1024.39 1024.59 1024.71 1024.83 1024.91 1025.03 1025.11 1025.15 1025.19 1025.15 1025.11 1025.03 1024.95 1024.71 1024.39 1024.03 1023.59 1023.07 1022.59 1022.27 1022.23 1022.59 1022.31 1021.43 1021.23 1021.03 1020.59 1020.23 1019.99 1019.87 1019.79 1019.75 1019.83 1019.95 1020.07 1020.23 1020.31 1020.43 1020.47 1020.47 1020.39 1020.31 1020.19 1020.07 1019.91 1019.71 1019.51 1019.35 1019.19 1019.03 1018.87
1020.63 1020.71 1020.79 1020.87 1021.11 1021.39 1021.63 1022.15 1022.35 1022.47 1022.59 1022.79 1022.95 1023.23 1023.43 1023.75 1024.31 1025.07 1025.87 1025.91 1025.63 1025.27 1025.07 1025.03 1025.11 1025.23 1025.71 1025.91 1025.79 1025.87 1025.71 1025.47 1025.23 1025.07 1024.79 1024.47 1024.15 1023.79 1023.27 1022.75 1022.23 1022.15 1021.75 1021.91 1022.15 1021.95 1021.43 1021.23 1021.11 1020.55 1020.23 1020.03 1019.79 1019.63 1019.51 1019.43 1019.59 1019.79 1020.03 1020.19 1020.19 1020.15 1020.11 1020.07 1019.99 1019.83 1019.75 1019.63 1019.51 1019.35 1019.15 1018.99 1018.83 1018.67
1020.83 1020.95 1020.91 1020.83 1021.15 1021.43 1021.87 1022.51 1022.55 1022.59 1022.47 1022.51 1022.83 1023.07 1023.43 1023.75 1024.07 1024.75 1025.47 1025.79 1025.75 1025.75 1025.83 1025.91 1025.99 1026.11 1026.15 1026.19 1026.23 1026.19 1026.27 1026.07 1025.87 1025.47 1024.95 1024.19 1023.67 1023.47 1023.19 1022.67 1022.31 1021.87 1021.71 1021.71 1021.79 1021.83 1021.67 1021.19 1020.95 1020.55 1020.23 1020.07 1019.95 1019.71 1019.39 1019.11 1019.23 1019.67 1019.83 1019.71 1019.67 1019.55 1019.55 1019.51 1019.51 1019.43 1019.35 1019.23 1019.11 1019.03 1018.87 1018.75 1018.59 1018.47
1021.15 1021.83 1021.99 1021.43 1021.31 1021.71 1022.35 1022.79 1022.67 1022.71 1022.51 1022.43 1022.67 1022.95 1023.27 1023.63 1023.79 1024.39 1024.91 1025.19 1025.67 1025.99 1025.99 1025.99 1025.99 1026.07 1026.03 1026.03 1026.07 1026.03 1026.07 1026.15 1026.11 1025.55 1024.87 1024.31 1024.15 1023.79 1023.35 1022.91 1022.39 1022.03 1021.95 1021.67 1021.67 1022.07 1021.63 1021.19 1020.91 1020.55 1020.07 1019.95 1019.51 1019.15 1018.91 1018.99 1019.11 1019.15 1018.99 1018.95 1019.03 1018.95 1018.91 1019.03 1019.11 1019.07 1018.95 1018.79 1018.67 1018.63 1018.55 1018.47 1018.43 1018.03
1021.27 1021.83 1022.31 1022.39 1021.95 1022.15 1022.87 1023.11 1023.03 1023.03 1022.71 1022.35 1022.67 1022.87 1023.07 1023.27 1023.51 1023.99 1024.47 1024.63 1024.83 1025.11 1025.23 1025.35 1025.63 1025.59 1025.75 1025.67 1025.39 1025.23 1025.71 1025.83 1025.87 1025.55 1025.15 1024.59 1024.19 1023.79 1023.39 1023.11 1022.83 1022.47 1021.63 1021.23 1021.67 1022.03 1021.35 1021.31 1020.95 1020.95 1020.43 1019.87 1019.19 1019.07 1018.87 1018.87 1018.67 1018.51 1018.47 1018.31 1018.39 1018.59 1018.75 1018.71 1018.71 1018.59 1018.39 1018.27 1018.23 1018.23 1018.23 1018.19 1018.23 1017.75
1021.31 1021.75 1022.35 1023.11 1023.43 1023.31 1023.39 1023.35 1023.39 1023.35 1023.19 1022.63 1022.75 1022.87 1022.83 1022.91 1023.35 1024.19 1024.35 1024.71 1024.67 1024.59 1024.71 1024.59 1024.59 1024.63 1024.55 1024.55 1024.63 1024.55 1024.91 1025.27 1025.27 1025.07 1024.79 1024.51 1024.31 1024.07 1023.67 1023.31 1023.07 1022.63 1022.07 1021.67 1021.87 1021.91 1021.51 1021.39 1020.87 1020.75 1020.39 1020.31 1019.79 1018.99 1018.87 1018.55 1018.19 1017.99 1017.91 1017.87 1017.87 1017.75 1017.95 1018.11 1017.95 1017.75 1017.67 1017.63 1017.71 1017.79 1017.71 1017.67 1017.79 1017.43
1021.11 1021.47 1022.03 1022.91 1023.83 1023.59 1023.63 1023.71 1023.75 1023.75 1023.63 1023.35 1023.03 1023.23 1023.43 1024.11 1024.43 1024.47 1024.35 1025.15 1025.43 1024.83 1024.63 1024.63 1024.51 1024.27 1024.15 1024.11 1024.11 1024.07 1024.07 1024.03 1024.03 1024.15 1024.19 1024.15 1024.11 1023.83 1023.43 1023.27 1023.11 1022.59 1022.19 1021.91 1022.15 1022.07 1021.67 1021.35 1021.35 1021.19 1020.95 1020.67 1019.91 1019.35 1018.75 1018.55 1018.39 1018.23 1018.11 1018.11 1017.99 1017.79 1017.75 1017.75 1017.83 1017.55 1017.27 1017.23 1017.23 1017.15 1017.03 1017.07 1017.19 1017.23
1020.95 1021.47 1022.11 1022.83 1023.95 1024.03 1024.03 1024.11 1024.15 1024.19 1024.11 1024.07 1024.03 1024.91 1025.11 1025.19 1025.03 1024.75 1024.47 1024.39 1024.39 1024.23 1024.19 1024.03 1023.95 1023.87 1023.79 1023.67 1023.67 1023.71 1023.79 1023.79 1023.91 1023.95 1023.95 1023.83 1023.79 1023.75 1023.15 1022.67 1022.79 1022.79 1022.31 1021.99 1022.39 1022.47 1022.27 1021.95 1021.83 1021.75 1021.51 1021.27 1020.47 1020.23 1019.83 1019.47 1019.11 1018.63 1018.35 1018.15 1017.99 1017.79 1017.83 1017.83 1017.79 1017.67 1017.43 1016.99 1016.55 1016.51 1016.63 1016.87 1017.23 1017.39
1021.03 1021.59 1022.51 1023.75 1024.43 1024.39 1024.47 1024.51 1024.55 1024.55 1024.63 1024.59 1025.07 1025.43 1025.39 1025.43 1025.39 1025.19 1024.35 1024.47 1024.51 1024.23 1024.15 1024.19 1024.11 1023.95 1023.79 1023.71 1023.71 1023.75 1023.79 1023.83 1024.07 1024.11 1023.83 1023.83 1023.83 1023.75 1023.83 1023.67 1023.39 1022.99 1022.59 1022.47 1022.47 1022.39 1022.39 1022.11 1021.99 1021.95 1021.63 1021.39 1021.11 1020.59 1020.39 1019.95 1019.15 1018.79 1018.63 1018.47 1018.27 1018.11 1017.95 1017.87 1017.75 1017.59 1017.47 1017.35 1017.07 1016.75 1016.63 1016.55 1016.63 1016.59
1021.19 1021.91 1022.75 1023.95 1024.67 1024.63 1024.75 1024.83 1024.87 1024.83 1024.75 1025.11 1025.63 1025.55 1025.63 1025.51 1025.51 1024.83 1024.35 1024.39 1024.23 1024.47 1024.39 1024.23 1023.99 1023.83 1023.83 1023.95 1023.91 1023.95 1024.07 1024.11 1024.19 1024.31 1024.55 1024.51 1024.35 1024.19 1023.91 1023.71 1023.47 1023.15 1022.91 1022.75 1022.63 1022.63 1022.59 1022.43 1022.15 1021.95 1021.83 1021.63 1021.47 1021.11 1020.55 1019.87 1019.51 1019.23 1018.99 1018.67 1018.59 1018.39 1018.19 1018.03 1017.79 1017.67 1017.59 1017.47 1017.15 1016.75 1016.31 1015.91 1015.79 1016.11
1021.63 1022.63 1023.67 1024.39 1024.59 1024.71 1024.79 1024.95 1025.11 1025.31 1025.59 1025.71 1025.71 1025.75 1025.59 1025.63 1024.79 1024.31 1024.23 1024.23 1024.35 1024.15 1024.07 1023.99 1024.03 1023.99 1023.95 1023.99 1024.11 1024.19 1024.15 1024.55 1024.67 1024.51 1024.15 1023.95 1023.87 1023.71 1023.55 1023.39 1023.27 1023.07 1022.91 1022.75 1022.63 1022.55 1022.47 1022.35 1022.11 1021.95 1021.87 1021.59 1021.35 1020.87 1020.67 1020.19 1019.91 1019.51 1019.27 1019.15 1018.91 1018.51 1018.27 1018.07 1017.91 1017.75 1017.59 1017.43 1017.19 1016.91 1016.59 1016.31 1016.11 1015.83
1023.15 1023.59 1024.19 1024.47 1024.67 1024.71 1024.71 1024.47 1024.39 1024.75 1025.51 1025.83 1025.71 1025.59 1025.55 1024.87 1024.23 1024.39 1024.27 1024.31 1024.31 1024.19 1024.07 1024.19 1024.23 1024.07 1023.99 1023.95 1024.07 1024.23 1024.51 1024.55 1024.19 1023.95 1023.83 1023.71 1023.55 1023.35 1023.15 1022.99 1022.71 1022.47 1022.23 1022.07 1021.95 1021.87 1021.75 1021.67 1021.63 1021.55 1021.47 1021.27 1021.15 1020.91 1020.59 1020.35 1019.91 1019.51 1019.35 1019.19 1018.79 1018.63 1018.47 1018.15 1017.83 1017.59 1017.55 1017.43 1017.19 1016.91 1016.67 1016.51 1016.23 1016.15
1023.71 1024.11 1024.03 1024.11 1024.23 1024.27 1024.59 1024.51 1024.67 1025.11 1025.67 1025.63 1025.43 1024.99 1024.59 1024.31 1024.39 1024.47 1024.63 1024.67 1024.59 1024.39 1024.31 1024.23 1024.19 1024.07 1023.99 1023.95 1023.83 1023.79 1023.83 1023.79 1023.75 1023.71 1023.75 1023.75 1023.55 1023.43 1023.15 1022.99 1022.67 1022.35 1021.91 1021.67 1021.55 1021.51 1021.43 1021.39 1021.31 1021.31 1021.31 1021.03 1020.87 1020.63 1020.39 1020.27 1020.03 1019.67 1019.23 1018.95 1018.83 1018.91 1018.31 1018.19 1017.99 1017.79 1017.59 1017.47 1017.23 1016.91 1016.59 1016.31 1015.99 1015.83
1023.19 1023.71 1024.23 1024.35 1024.23 1024.39 1024.39 1024.43 1024.43 1024.47 1024.43 1024.27 1024.19 1024.07 1024.19 1024.35 1024.63 1025.11 1025.39 1025.43 1024.75 1024.39 1024.31 1024.27 1024.23 1024.19 1024.03 1023.75 1023.63 1023.79 1023.79 1023.83 1023.71 1023.59 1023.51 1023.47 1023.35 1023.19 1023.03 1022.91 1022.55 1022.15 1021.75 1021.51 1021.31 1021.19 1021.23 1021.15 1021.15 1021.07 1021.07 1021.07 1020.99 1020.67 1020.51 1020.35 1019.99 1019.51 1019.11 1018.71 1018.55 1018.35 1018.27 1018.19 1017.99 1017.79 1017.67 1017.47 1017.19 1016.87 1016.51 1016.19 1015.99 1015.71
1023.19 1023.47 1023.51 1023.47 1023.59 1023.63 1023.55 1023.55 1023.43 1023.67 1023.91 1024.07 1024.23 1024.47 1024.15 1024.11 1024.15 1024.15 1024.15 1024.11 1024.15 1024.31 1024.39 1024.35 1024.39 1024.35 1023.87 1023.79 1024.07 1024.15 1024.03 1023.79 1023.71 1023.51 1023.43 1023.31 1023.23 1022.95 1022.87 1022.75 1022.47 1022.19 1021.79 1021.39 1021.19 1021.07 1020.99 1020.91 1020.87 1020.83 1020.75 1020.63 1020.55 1020.55 1020.55 1020.43 1019.83 1019.35 1018.91 1018.47 1018.31 1018.19 1018.07 1017.95 1017.83 1017.55 1017.35 1017.31 1017.11 1016.83 1016.43 1016.07 1015.83 1015.67
1022.63 1022.87 1022.79 1022.91 1022.91 1023.03 1023.19 1023.27 1023.43 1023.63 1023.79 1024.03 1024.11 1024.27 1024.79 1024.51 1024.15 1024.47 1024.43 1024.27 1024.27 1024.51 1024.67 1024.51 1024.39 1024.03 1023.99 1024.27 1024.11 1024.03 1023.99 1023.91 1023.79 1023.59 1023.67 1023.43 1023.15 1022.99 1022.79 1022.59 1022.27 1021.95 1021.75 1021.43 1021.15 1020.99 1020.83 1020.67 1020.55 1020.39 1020.31 1020.27 1020.19 1020.15 1020.15 1020.07 1019.63 1019.11 1018.75 1018.59 1018.55 1018.39 1018.03 1017.79 1017.51 1017.27 1017.11 1017.03 1016.99 1016.95 1016.59 1016.15 1015.83 1015.55
1022.15 1022.27 1022.43 1022.59 1022.71 1022.83 1022.87 1023.03 1023.15 1023.51 1023.71 1023.75 1023.75 1023.91 1024.15 1024.19 1024.47 1024.63 1024.39 1024.43 1024.55 1024.51 1024.43 1024.39 1024.23 1023.83 1023.99 1024.19 1024.19 1024.19 1024.15 1024.07 1023.87 1023.63 1023.47 1023.23 1023.03 1022.83 1022.63 1022.47 1022.15 1021.91 1021.67 1021.43 1021.23 1020.95 1020.79 1020.59 1020.47 1020.31 1020.15 1020.07 1019.87 1019.39 1019.27 1019.23 1019.19 1018.95 1018.83 1018.67 1018.51 1018.35 1017.99 1017.71 1017.51 1017.27 1017.19 1017.03 1016.87 1016.95 1016.55 1016.23 1015.87 1015.43
1021.79 1021.87 1022.07 1022.35 1022.55 1022.79 1022.91 1023.15 1023.43 1023.63 1023.63 1023.83 1023.91 1023.91 1023.87 1023.91 1024.15 1024.43 1024.31 1024.63 1024.63 1024.47 1024.39 1024.39 1024.35 1024.31 1024.27 1024.23 1024.19 1024.15 1024.03 1023.99 1023.87 1023.67 1023.51 1023.31 1023.07 1022.87 1022.67 1022.51 1022.31 1022.03 1021.71 1021.39 1021.07 1020.67 1020.47 1020.39 1020.43 1020.47 1020.51 1020.39 1020.19 1019.75 1018.99 1018.47 1018.59 1018.63 1018.75 1018.59 1018.43 1018.23 1017.99 1017.71 1017.51 1017.39 1017.27 1017.03 1016.83 1016.83 1016.59 1016.31 1016.03 1015.71
1021.47 1021.63 1021.91 1022.15 1022.51 1022.79 1022.87 1023.27 1023.47 1023.55 1023.71 1023.83 1023.95 1023.95 1024.07 1024.03 1024.11 1024.11 1024.31 1024.71 1024.39 1024.39 1024.51 1024.43 1024.11 1024.03 1024.03 1023.95 1023.95 1023.99 1023.87 1023.83 1023.71 1023.67 1023.59 1023.35 1023.11 1022.91 1022.75 1022.43 1022.23 1021.91 1021.71 1021.31 1020.95 1020.59 1020.51 1020.55 1020.51 1020.51 1020.47 1020.31 1020.15 1019.63 1018.79 1018.27 1018.35 1018.47 1018.43 1018.43 1018.31 1018.15 1017.95 1017.79 1017.63 1017.51 1017.27 1017.03 1016.75 1016.67 1016.67 1016.59 1016.31 1016.03
1021.35 1021.63 1021.83 1022.03 1022.31 1022.51 1022.91 1023.19 1023.59 1023.75 1023.71 1023.79 1023.87 1023.99 1024.03 1023.95 1023.95 1024.07 1024.15 1024.07 1024.19 1024.31 1024.23 1023.91 1023.83 1023.79 1023.79 1023.91 1023.95 1023.83 1023.79 1023.75 1023.79 1023.63 1023.47 1023.39 1023.23 1022.91 1022.67 1022.51 1022.27 1022.03 1021.63 1021.15 1020.83 1020.59 1020.51 1020.47 1020.47 1020.51 1020.59 1020.59 1020.23 1019.63 1019.11 1018.39 1018.35 1018.19 1018.27 1018.39 1018.31 1018.11 1018.15 1018.07 1017.87 1017.59 1017.23 1016.83 1016.59 1016.43 1016.51 1016.67 1016.43 1016.35
1021.15 1021.43 1021.75 1021.95 1022.27 1022.59 1023.15 1023.35 1023.55 1023.67 1023.71 1023.75 1023.95 1023.95 1024.03 1024.03 1024.03 1024.15 1024.15 1024.19 1024.27 1024.35 1024.27 1023.99 1023.75 1023.83 1024.03 1023.95 1023.83 1023.87 1023.87 1023.79 1023.79 1023.67 1023.51 1023.27 1023.11 1022.95 1022.75 1022.51 1022.27 1021.87 1021.63 1021.31 1020.95 1020.63 1020.39 1020.19 1020.07 1020.03 1019.99 1020.07 1019.95 1019.55 1019.35 1019.27 1018.75 1018.31 1018.15 1018.23 1018.19 1018.23 1018.07 1018.07 1017.87 1017.55 1017.27 1016.87 1016.51 1016.39 1016.51 1016.67 1016.87 1016.83
1021.07 1021.27 1021.47 1021.83 1022.23 1022.59 1023.03 1023.27 1023.47 1023.59 1023.79 1023.87 1023.75 1023.83 1023.99 1024.11 1024.11 1024.19 1024.19 1024.23 1024.27 1024.43 1024.27 1023.83 1023.75 1023.87 1023.87 1023.87 1023.95 1023.87 1023.71 1023.67 1023.59 1023.35 1023.31 1023.23 1023.11 1023.03 1022.83 1022.51 1022.19 1021.91 1021.67 1021.39 1021.07 1020.59 1020.19 1019.95 1019.79 1019.63 1019.67 1019.71 1019.75 1019.67 1019.59 1019.31 1018.75 1018.31 1017.91 1017.71 1017.79 1017.99 1017.91 1017.83 1017.67 1017.43 1017.07 1016.71 1016.67 1016.83 1016.63 1016.31 1016.23 1016.15
1021.27 1021.43 1021.75 1021.95 1022.31 1022.63 1022.95 1023.15 1023.27 1023.51 1023.63 1023.71 1023.87 1024.27 1024.19 1024.15 1024.27 1024.27 1024.47 1024.63 1024.79 1024.71 1024.31 1023.67 1023.59 1023.79 1023.75 1023.83 1023.75 1023.71 1023.59 1023.47 1023.35 1023.23 1023.11 1023.07 1022.99 1022.87 1022.63 1022.51 1022.23 1021.83 1021.55 1021.15 1020.83 1020.47 1020.11 1019.63 1019.43 1019.59 1019.67 1019.63 1019.55 1019.55 1019.43 1019.11 1018.55 1017.47 1016.99 1016.91 1017.47 1017.75 1017.91 1018.03 1017.99 1017.83 1017.59 1017.27 1017.19 1017.03 1016.75 1016.35 1016.15 1015.95
1021.27 1021.55 1021.91 1022.19 1022.43 1022.63 1022.75 1022.95 1023.11 1023.47 1023.71 1023.83 1023.91 1023.99 1024.11 1024.11 1024.03 1024.63 1024.63 1024.71 1024.91 1024.71 1023.83 1023.31 1023.43 1023.43 1023.43 1023.39 1023.39 1023.43 1023.43 1023.43 1023.35 1023.23 1023.11 1022.95 1022.75 1022.55 1022.31 1022.11 1021.87 1021.51 1021.35 1021.07 1020.71 1020.31 1019.83 1019.55 1019.39 1019.31 1019.35 1019.47 1019.55 1019.55 1019.03 1018.11 1017.43 1017.03 1016.95 1016.87 1017.47 1017.91 1017.95 1017.95 1017.95 1017.83 1017.63 1017.47 1017.31 1017.11 1016.59 1016.19 1015.99 1015.67
1021.47 1021.79 1022.27 1022.55 1022.67 1022.63 1022.75 1023.03 1023.23 1023.51 1023.71 1023.83 1023.95 1024.19 1024.07 1023.95 1023.91 1023.99 1023.83 1023.79 1023.95 1023.79 1023.75 1023.67 1023.51 1023.55 1023.51 1023.47 1023.35 1023.35 1023.31 1023.19 1023.15 1022.99 1022.87 1022.71 1022.59 1022.43 1022.15 1021.83 1021.59 1021.43 1021.27 1020.87 1020.43 1020.15 1019.79 1019.47 1019.23 1019.15 1019.11 1019.19 1019.07 1018.87 1018.51 1017.79 1017.47 1017.31 1017.07 1016.79 1016.99 1017.31 1017.59 1017.75 1017.79 1017.75 1017.59 1017.55 1017.55 1017.55 1017.43 1017.23 1016.95 1016.23
1021.71 1022.19 1022.47 1022.71 1022.83 1022.87 1022.87 1023.03 1023.23 1023.59 1023.83 1023.83 1023.87 1023.91 1023.87 1023.99 1023.99 1024.11 1023.99 1023.99 1023.99 1024.03 1024.11 1023.67 1023.51 1023.63 1023.63 1023.47 1023.35 1023.15 1023.07 1023.11 1023.15 1023.15 1022.95 1022.67 1022.43 1022.23 1022.03 1021.71 1021.47 1021.23 1020.95 1020.59 1020.23 1019.87 1019.55 1019.27 1018.95 1018.83 1018.83 1018.83 1018.63 1018.43 1018.03 1017.63 1017.39 1017.19 1017.07 1017.03 1017.27 1017.47 1017.43 1017.35 1017.43 1017.59 1017.59 1017.67 1017.67 1017.55 1017.39 1017.27 1017.11 1017.03
1022.07 1022.35 1022.59 1022.79 1022.95 1023.03 1023.11 1023.31 1023.55 1023.75 1023.87 1023.91 1023.79 1023.95 1024.07 1024.07 1024.15 1024.11 1024.03 1024.15 1024.11 1024.31 1024.27 1024.03 1023.87 1023.67 1023.59 1023.43 1023.35 1023.35 1023.35 1023.35 1023.27 1022.95 1022.63 1022.27 1021.99 1021.83 1021.71 1021.51 1021.31 1021.03 1020.75 1020.43 1020.19 1019.79 1019.35 1019.07 1018.79 1018.59 1018.55 1018.43 1018.35 1018.11 1017.71 1017.55 1017.43 1017.31 1017.07 1017.11 1017.31 1017.31 1017.35 1017.59 1017.55 1017.59 1017.67 1017.75 1017.91 1017.71 1017.51 1017.31 1017.23 1017.19
Thickness
5586 5586 5586 5587 5587 5587 5588 5589 5588 5589 5589 5589 5588 5588 5589 5586 5582 5578 5575 5573 5571 5572 5572 5571 5569 5567 5566 5565 5564 5564 5563 5561 5561 5563 5562 5561 5559 5559 5560 5561 5561 5562 5563 5564 5565 5566 5567 5569 5570 5571 5572 5573 5574 5575 5576 5576 5578 5579 5580 5581 5582 5584 5586 5588 5590 5590 5591 5592 5594 5595 5596 5597 5598 5599
5582 5582 5582 5583 5583 5583 5583 5583 5583 5584 5584 5585 5586 5586 5587 5587 5585 5581 5576 5571 5570 5569 5568 5568 5568 5565 5565 5564 5563 5562 5561 5559 5560 5561 5560 5559 5557 5557 5558 5559 5559 5560 5561 5562 5563 5564 5565 5566 5567 5568 5569 5570 5571 5572 5573 5573 5574 5575 5576 5577 5577 5579 5580 5583 5584 5586 5587 5588 5589 5591 5593 5594 5595 5596
5578 5578 5578 5579 5578 5578 5579 5579 5579 5580 5581 5582 5583 5583 5583 5582 5581 5581 5577 5569 5566 5567 5565 5562 5563 5562 5562 5562 5560 5560 5558 5557 5557 5558 5559 5558 5557 5557 5557 5558 5558 5558 5559 5560 5561 5561 5562 5563 5564 5565 5566 5567 5568 5569 5570 5571 5571 5572 5573 5573 5574 5575 5577 5578 5580 5581 5583 5584 5585 5587 5588 5590 5592 5593
5575 5575 5575 5575 5575 5575 5576 5576 5576 5576 5577 5578 5579 5579 5578 5576 5576 5577 5576 5568 5562 5562 5562 5560 5559 5559 5558 5559 5559 5558 5557 5555 5555 5557 5557 5556 5556 5557 5558 5557 5557 5557 5557 5558 5558 5559 5560 5560 5561 5563 5563 5565 5566 5566 5567 5568 5569 5570 5570 5571 5572 5573 5573 5574 5576 5577 5578 5580 5582 5582 5583 5585 5587 5588
5573 5573 5573 5572 5572 5573 5573 5573 5573 5573 5573 5574 5574 5574 5573 5572 5571 5572 5571 5565 5560 5557 5558 5558 5557 5556 5555 5557 5557 5556 5555 5554 5554 5555 5555 5554 5556 5557 5558 5557 5556 5555 5555 5555 5556 5557 5557 5558 5559 5560 5561 5562 5563 5564 5565 5566 5566 5567 5568 5569 5569 5570 5571 5572 5573 5574 5576 5578 5579 5579 5580 5581 5582 5584
5570 5570 5570 5569 5569 5570 5570 5570 5572 5571 5571 5572 5571 5571 5570 5568 5567 5568 5567 5564 5559 5556 5554 5555 5555 5553 5553 5555 5554 5553 5553 5552 5553 5554 5554 5554 5554 5555 5556 5557 5556 5554 5553 5553 5553 5554 5555 5556 5556 5558 5558 5559 5560 5562 5562 5563 5564 5565 5565 5566 5566 5568 5568 5569 5570 5572 5574 5575 5577 5578 5578 5578 5578 5579
5568 5566 5566 5565 5564 5565 5565 5566 5568 5568 5568 5570 5568 5566 5566 5564 5563 5564 5564 5563 5560 5556 5554 5554 5554 5552 5550 5551 5552 5551 5550 5550 5551 5553 5553 5553 5553 5553 5553 5555 5555 5552 5551 5551 5551 5552 5553 5554 5554 5555 5556 5557 5558 5559 5559 5560 5561 5562 5562 5563 5564 5565 5566 5567 5568 5569 5571 5573 5574 5575 5576 5576 5576 5576
5566 5564 5563 5563 5562 5562 5561 5562 5563 5563 5563 5565 5563 5561 5561 5560 5559 5559 5559 5559 5558 5556 5553 5552 5553 5552 5550 5549 5550 5550 5550 5549 5549 5551 5551 5551 5552 5551 5551 5552 5553 5551 5550 5549 5550 5550 5551 5552 5553 5553 5554 5554 5555 5556 5557 5557 5558 5559 5560 5560 5561 5562 5564 5565 5565 5567 5568 5569 5571 5572 5572 5573 5573 5574
5564 5562 5562 5561 5560 5559 5558 5558 5559 5559 5559 5560 5560 5558 5558 5558 5555 5554 5555 5555 5555 5555 5552 5550 5549 5549 5549 5549 5548 5547 5548 5549 5549 5550 5551 5550 5550 5549 5548 5550 5550 5550 5548 5548 5549 5549 5550 5551 5551 5552 5552 5553 5553 5554 5555 5555 5556 5556 5557 5557 5559 5560 5561 5562 5563 5564 5565 5566 5567 5569 5569 5570 5571 5572
5561 5560 5559 5559 5558 5557 5556 5555 5555 5555 5555 5555 5555 5555 5555 5555 5551 5550 5550 5550 5550 5550 5550 5548 5547 5546 5546 5546 5545 5545 5544 5544 5546 5546 5546 5548 5548 5547 5547 5547 5548 5547 5546 5547 5547 5547 5548 5549 5550 5550 5551 5551 5551 5552 5553 5553 5553 5554 5554 5555 5556 5557 5558 5559 5560 5561 5562 5563 5564 5565 5567 5568 5568 5569
5559 5558 5557 5556 5555 5554 5553 5551 5550 5550 5550 5551 5551 5550 5551 5550 5548 5547 5547 5547 5547 5546 5546 5546 5546 5544 5543 5540 5541 5542 5541 5541 5543 5542 5540 5541 5544 5544 5543 5544 5546 5545 5544 5545 5546 5546 5547 5548 5548 5550 5550 5550 5550 5550 5551 5552 5552 5551 5552 5552 5553 5553 5555 5555 5556 5557 5558 5560 5561 5562 5563 5564 5565 5566
5557 5556 5556 5555 5553 5552 5551 5549 5548 5547 5546 5547 5547 5547 5546 5545 5545 5544 5544 5544 5544 5544 5543 5543 5543 5542 5541 5540 5538 5538 5538 5538 5538 5536 5534 5534 5537 5539 5539 5540 5543 5542 5541 5541 5543 5544 5545 5546 5547 5548 5550 5550 5548 5547 5549 5550 5549 5548 5549 5549 5550 5550 5551 5551 5552 5554 5554 5555 5557 5558 5560 5560 5562 5563
5556 5555 5554 5553 5551 5550 5548 5547 5545 5544 5542 5543 5544 5543 5541 5540 5540 5541 5541 5541 5542 5542 5541 5541 5540 5539 5539 5539 5536 5532 5532 5531 5529 5529 5529 5529 5531 5533 5534 5536 5538 5538 5536 5536 5538 5540 5541 5543 5543 5544 5547 5547 5545 5544 5546 5546 5546 5545 5545 5545 5545 5546 5546 5547 5548 5549 5550 5551 5552 5554 5555 5556 5558 5559
5555 5554 5553 5552 5549 5546 5544 5543 5541 5539 5538 5538 5538 5537 5536 5535 5536 5536 5536 5537 5538 5537 5537 5536 5534 5532 5532 5532 5529 5526 5526 5525 5523 5523 5523 5524 5526 5527 5528 5530 5532 5532 5530 5530 5531 5533 5534 5536 5538 5539 5541 5541 5540 5540 5541 5541 5540 5539 5539 5539 5540 5540 5541 5542 5543 5544 5545 5546 5547 5548 5550 5552 5553 5554
5553 5552 5551 5550 5547 5544 5542 5540 5537 5536 5534 5533 5532 5531 5531 5529 5530 5530 5530 5532 5531 5530 5530 5530 5528 5526 5525 5525 5523 5521 5520 5519 5518 5517 5517 5518 5519 5519 5520 5522 5524 5525 5523 5522 5524 5526 5527 5528 5531 5533 5533 5533 5534 5534 5533 5532 5531 5531 5531 5531 5532 5533 5534 5535 5536 5538 5539 5540 5541 5542 5544 5546 5547 5549
5548 5547 5547 5547 5545 5543 5540 5538 5536 5533 5530 5528 5526 5525 5524 5523 5522 5522 5523 5524 5524 5523 5523 5522 5521 5521 5518 5517 5517 5515 5512 5510 5510 5510 5511 5512 5512 5511 5512 5513 5516 5516 5514 5513 5516 5520 5521 5521 5523 5525 5525 5525 5526 5526 5526 5525 5522 5522 5523 5524 5524 5525 5526 5527 5528 5530 5531 5533 5534 5536 5538 5540 5541 5543
5542 5542 5544 5544 5542 5540 5536 5534 5535 5532 5526 5523 5520 5519 5518 5516 5515 5515 5514 5515 5514 5515 5515 5514 5514 5514 5511 5510 5509 5506 5502 5501 5501 5503 5504 5505 5504 5504 5504 5505 5507 5507 5505 5504 5507 5511 5514 5514 5516 5517 5518 5517 5518 5518 5518 5517 5516 5515 5515 5516 5517 5517 5517 5519 5520 5521 5523 5525 5526 5528 5530 5532 5534 5536
5540 5541 5542 5540 5539 5536 5533 5532 5532 5529 5524 5520 5517 5516 5515 5513 5511 5510 5509 5507 5506 5506 5507 5507 5506 5505 5503 5500 5500 5496 5494 5493 5493 5495 5496 5495 5495 5495 5496 5496 5497 5498 5498 5498 5498 5502 5505 5507 5507 5509 5510 5510 5510 5510 5510 5510 5509 5509 5508 5507 5508 5509 5509 5510 5512 5513 5514 5516 5518 5520 5522 5524 5526 5528
5538 5537 5536 5535 5534 5533 5530 5529 5527 5524 5520 5517 5515 5514 5512 5510 5507 5504 5502 5501 5500 5500 5500 5500 5498 5496 5494 5492 5490 5489 5487 5487 5486 5486 5486 5486 5487 5488 5489 5491 5493 5493 5495 5493 5492 5494 5498 5498 5498 5500 5502 5502 5503 5503 5502 5502 5503 5502 5501 5499 5499 5500 5501 5502 5503 5504 5506 5507 5509 5511 5513 5516 5518 5521
5533 5532 5531 5531 5529 5527 5525 5522 5520 5517 5516 5514 5512 5510 5508 5505 5502 5497 5493 5492 5493 5492 5492 5491 5489 5487 5484 5483 5481 5480 5478 5478 5478 5478 5479 5480 5482 5484 5486 5488 5490 5490 5490 5489 5487 5488 5490 5490 5490 5492 5494 5494 5496 5496 5494 5495 5496 5495 5492 5491 5491 5492 5493 5494 5495 5496 5497 5499 5501 5503 5505 5507 5510 5512
5525 5524 5524 5524 5523 5520 5517 5514 5512 5512 5512 5510 5508 5505 5502 5500 5497 5492 5488 5486 5485 5484 5483 5481 5479 5478 5476 5474 5474 5472 5470 5469 5469 5469 5472 5475 5477 5477 5479 5481 5483 5484 5483 5482 5480 5480 5481 5481 5482 5484 5486 5485 5486 5488 5487 5487 5487 5486 5485 5484 5484 5485 5485 5486 5487 5487 5489 5490 5492 5494 5496 5499 5501 5503
5517 5514 5513 5515 5516 5514 5509 5507 5506 5506 5506 5506 5504 5501 5498 5496 5493 5489 5485 5482 5480 5477 5476 5475 5473 5471 5470 5469 5468 5467 5465 5463 5460 5461 5464 5467 5468 5468 5471 5473 5475 5475 5475 5475 5473 5472 5472 5474 5474 5475 5478 5479 5480 5481 5481 5479 5478 5477 5478 5478 5479 5478 5478 5478 5477 5478 5480 5483 5485 5486 5488 5490 5491 5494
5511 5507 5504 5505 5506 5504 5501 5499 5499 5499 5500 5502 5500 5496 5494 5493 5489 5486 5482 5479 5478 5475 5473 5472 5470 5469 5467 5465 5464 5463 5461 5458 5455 5454 5456 5458 5459 5461 5462 5463 5464 5466 5467 5467 5465 5463 5464 5466 5465 5464 5466 5470 5473 5473 5472 5472 5471 5471 5471 5471 5471 5470 5470 5468 5468 5469 5472 5475 5477 5478 5480 5481 5482 5485
5505 5502 5499 5495 5494 5494 5494 5492 5492 5491 5492 5494 5493 5491 5491 5489 5485 5481 5476 5473 5471 5471 5470 5469 5467 5466 5464 5463 5461 5460 5458 5455 5453 5452 5451 5451 5451 5452 5454 5454 5454 5457 5459 5458 5455 5455 5457 5457 5456 5455 5455 5457 5463 5465 5465 5465 5466 5466 5464 5463 5463 5464 5463 5462 5461 5463 5465 5467 5469 5469 5472 5473 5475 5477
5501 5498 5495 5489 5486 5486 5486 5485 5484 5484 5484 5485 5485 5483 5480 5478 5474 5473 5471 5467 5464 5465 5465 5463 5462 5462 5461 5460 5459 5457 5455 5453 5451 5449 5447 5446 5445 5445 5447 5448 5447 5449 5451 5449 5446 5446 5447 5447 5446 5445 5444 5445 5449 5453 5455 5456 5456 5456 5455 5455 5455 5456 5456 5455 5454 5454 5456 5459 5461 5463 5465 5466 5467 5468
5496 5493 5488 5483 5478 5478 5478 5476 5476 5476 5475 5475 5474 5470 5468 5466 5464 5464 5465 5463 5461 5461 5461 5459 5458 5458 5456 5456 5454 5452 5450 5448 5445 5443 5442 5441 5439 5438 5440 5441 5441 5441 5443 5441 5436 5434 5435 5435 5434 5433 5433 5435 5437 5439 5440 5441 5443 5444 5445 5445 5446 5446 5446 5446 5446 5446 5447 5450 5453 5455 5456 5457 5457 5457
5490 5486 5481 5475 5471 5470 5470 5469 5468 5468 5468 5467 5464 5461 5459 5458 5456 5457 5458 5457 5456 5455 5453 5452 5452 5451 5450 5449 5447 5445 5443 5441 5438 5435 5434 5433 5432 5431 5430 5431 5431 5432 5432 5430 5428 5425 5425 5426 5425 5424 5424 5424 5425 5426 5427 5429 5432 5433 5434 5434 5434 5435 5435 5436 5437 5438 5438 5440 5442 5445 5447 5450 5450 5450
5484 5479 5473 5467 5463 5463 5462 5461 5460 5460 5459 5457 5455 5453 5452 5450 5450 5452 5452 5451 5449 5448 5446 5445 5445 5444 5442 5441 5439 5437 5434 5432 5429 5427 5426 5425 5424 5424 5424 5423 5422 5422 5421 5420 5418 5417 5416 5416 5416 5415 5414 5413 5413 5415 5416 5419 5421 5421 5421 5422 5423 5423 5424 5425 5427 5429 5429 5430 5432 5435 5438 5442 5444 5444
5474 5469 5464 5459 5457 5456 5456 5455 5454 5453 5450 5448 5447 5446 5445 5445 5446 5447 5446 5444 5442 5441 5441 5439 5437 5436 5435 5433 5431 5428 5426 5422 5421 5421 5421 5421 5420 5419 5419 5419 5418 5416 5415 5414 5412 5410 5409 5409 5409 5407 5405 5404 5404 5404 5405 5407 5408 5408 5409 5410 5411 5413 5413 5413 5416 5418 5419 5420 5423 5426 5429 5431 5434 5436
5460 5457 5455 5453 5452 5451 5451 5451 5450 5447 5443 5441 5441 5440 5440 5441 5442 5441 5438 5437 5435 5434 5433 5432 5430 5429 5428 5426 5424 5422 5419 5417 5417 5417 5417 5417 5416 5415 5415 5414 5413 5412 5410 5410 5408 5407 5405 5404 5402 5400 5399 5397 5396 5396 5396 5396 5398 5398 5399 5400 5401 5403 5403 5403 5406 5408 5409 5411 5413 5416 5418 5421 5423 5425
5451 5448 5447 5446 5446 5445 5444 5444 5444 5440 5438 5437 5437 5437 5437 5436 5434 5431 5429 5427 5426 5426 5425 5424 5424 5423 5422 5420 5420 5418 5417 5415 5414 5413 5412 5411 5410 5409 5408 5408 5407 5407 5406 5405 5403 5402 5400 5398 5395 5394 5392 5391 5390 5389 5389 5389 5390 5391 5392 5393 5394 5394 5395 5394 5396 5398 5399 5401 5404 5407 5409 5412 5414 5416
5444 5442 5441 5441 5440 5440 5439 5439 5439 5437 5435 5434 5433 5433 5432 5429 5426 5423 5420 5419 5420 5420 5419 5418 5418 5417 5417 5417 5415 5413 5412 5411 5409 5408 5407 5406 5404 5404 5403 5401 5401 5401 5400 5399 5398 5396 5395 5392 5390 5388 5387 5385 5384 5384 5383 5383 5383 5385 5388 5389 5389 5389 5389 5389 5389 5390 5391 5393 5395 5398 5401 5403 5406 5408
5438 5437 5437 5438 5438 5437 5436 5436 5436 5434 5431 5429 5427 5425 5424 5423 5422 5419 5417 5416 5416 5415 5413 5412 5412 5411 5412 5411 5409 5407 5406 5405 5404 5403 5401 5400 5400 5399 5397 5395 5394 5394 5394 5394 5392 5391 5390 5388 5387 5385 5383 5382 5381 5379 5378 5378 5380 5382 5384 5385 5385 5385 5384 5384 5384 5386 5387 5387 5389 5391 5393 5396 5398 5400
5435 5434 5435 5434 5434 5434 5433 5431 5430 5427 5424 5422 5421 5418 5415 5415 5414 5412 5411 5411 5410 5408 5407 5407 5407 5408 5407 5405 5403 5402 5400 5399 5398 5397 5395 5394 5394 5393 5391 5390 5389 5389 5388 5388 5387 5387 5386 5385 5385 5384 5382 5381 5380 5378 5376 5375 5376 5378 5379 5379 5379 5379 5379 5379 5380 5381 5382 5383 5383 5384 5386 5389 5392 5394
5431 5431 5431 5430 5429 5428 5427 5425 5422 5419 5417 5416 5415 5413 5411 5409 5407 5406 5405 5405 5403 5403 5403 5403 5403 5404 5402 5399 5397 5396 5394 5393 5392 5391 5390 5389 5389 5386 5385 5384 5384 5383 5383 5383 5383 5383 5383 5382 5381 5381 5379 5378 5377 5376 5376 5374 5373 5373 5373 5373 5372 5373 5374 5374 5374 5375 5376 5378 5379 5379 5381 5384 5387 5390
5427 5427 5427 5425 5422 5421 5419 5416 5414 5412 5411 5409 5408 5407 5406 5404 5403 5402 5400 5399 5398 5399 5399 5398 5398 5398 5396 5395 5394 5392 5390 5389 5387 5386 5385 5383 5381 5380 5379 5378 5378 5379 5379 5379 5380 5381 5381 5380 5378 5376 5375 5373 5371 5372 5374 5374 5372 5369 5369 5368 5367 5367 5368 5368 5368 5369 5370 5372 5374 5375 5377 5379 5381 5383
5423 5423 5421 5419 5416 5413 5411 5409 5406 5405 5404 5402 5401 5400 5400 5399 5399 5398 5396 5395 5395 5396 5395 5395 5395 5395 5393 5392 5391 5389 5386 5385 5382 5380 5378 5376 5374 5374 5374 5374 5375 5375 5376 5376 5378 5379 5378 5375 5374 5371 5369 5368 5366 5368 5371 5372 5369 5366 5365 5364 5363 5362 5362 5363 5363 5363 5365 5367 5370 5371 5371 5372 5374 5376
5419 5417 5415 5413 5411 5407 5404 5402 5400 5399 5398 5397 5396 5395 5394 5395 5395 5394 5393 5393 5393 5392 5391 5393 5393 5393 5391 5390 5387 5385 5382 5380 5377 5374 5372 5370 5370 5370 5371 5371 5371 5372 5373 5374 5375 5376 5375 5372 5370 5367 5364 5363 5362 5364 5366 5366 5365 5363 5362 5360 5358 5358 5357 5357 5358 5359 5361 5363 5366 5367 5366 5366 5367 5369
5414 5413 5410 5408 5405 5402 5398 5396 5395 5393 5393 5392 5392 5391 5391 5390 5390 5390 5389 5389 5389 5387 5388 5390 5391 5389 5388 5386 5384 5381 5377 5374 5371 5369 5367 5366 5366 5367 5367 5368 5369 5369 5370 5370 5371 5372 5372 5370 5369 5366 5363 5361 5360 5360 5359 5359 5359 5360 5359 5356 5355 5354 5354 5353 5354 5355 5358 5360 5362 5363 5362 5362 5362 5363
5409 5408 5406 5403 5400 5397 5394 5392 5390 5389 5388 5388 5388 5387 5387 5386 5386 5386 5386 5385 5385 5384 5386 5388 5388 5386 5384 5382 5379 5377 5373 5370 5367 5365 5364 5363 5364 5364 5364 5365 5366 5367 5367 5367 5368 5369 5369 5369 5368 5365 5363 5360 5358 5356 5354 5353 5355 5357 5358 5357 5354 5352 5351 5351 5351 5352 5354 5357 5357 5357 5358 5360 5361 5361
5403 5402 5400 5397 5394 5392 5390 5389 5388 5386 5385 5385 5384 5382 5382 5383 5382 5381 5381 5380 5379 5380 5384 5387 5386 5384 5382 5380 5377 5374 5370 5366 5364 5363 5362 5362 5362 5362 5363 5364 5364 5365 5366 5366 5367 5367 5368 5368 5367 5364 5361 5359 5356 5353 5351 5353 5356 5359 5360 5358 5354 5350 5349 5348 5347 5348 5350 5352 5351 5353 5355 5358 5360 5361
5397 5395 5393 5390 5389 5388 5387 5386 5384 5382 5381 5381 5380 5379 5379 5380 5379 5378 5378 5378 5378 5379 5383 5385 5384 5382 5381 5379 5376 5372 5368 5364 5362 5361 5361 5361 5361 5362 5363 5363 5364 5365 5365 5365 5366 5367 5367 5367 5366 5363 5360 5357 5353 5351 5351 5355 5358 5360 5359 5356 5352 5349 5347 5347 5346 5346 5348 5348 5348 5350 5352 5355 5358 5361
5390 5388 5385 5383 5383 5383 5383 5381 5380 5378 5377 5377 5376 5375 5376 5377 5377 5377 5378 5379 5379 5380 5381 5382 5381 5379 5378 5376 5374 5371 5367 5363 5360 5360 5360 5360 5360 5361 5362 5363 5364 5364 5364 5364 5365 5366 5366 5366 5365 5362 5359 5357 5354 5352 5353 5356 5357 5356 5355 5354 5351 5349 5347 5347 5346 5345 5346 5346 5347 5347 5348 5350 5352 5356
5382 5380 5379 5377 5377 5378 5378 5377 5376 5375 5373 5373 5373 5373 5373 5374 5374 5374 5376 5376 5377 5377 5377 5377 5377 5376 5375 5373 5372 5370 5366 5363 5359 5358 5358 5359 5360 5360 5361 5362 5363 5363 5364 5365 5365 5366 5366 5366 5365 5363 5360 5358 5356 5354 5354 5355 5355 5354 5353 5351 5349 5347 5347 5347 5346 5346 5346 5346 5346 5347 5348 5349 5350 5352
5375 5374 5373 5373 5373 5373 5372 5372 5371 5370 5368 5369 5369 5369 5369 5370 5371 5372 5373 5374 5373 5372 5372 5373 5373 5373 5372 5371 5369 5367 5364 5361 5359 5358 5358 5360 5360 5361 5361 5362 5362 5363 5364 5365 5365 5365 5366 5365 5365 5363 5362 5359 5357 5355 5355 5354 5353 5351 5350 5348 5346 5346 5346 5346 5345 5345 5345 5344 5344 5346 5347 5348 5349 5350